Location: Kuffner-Sternwarte
(48.2130°N, 16.2960°E)
Time: 21:47:03
(UTC+02:00)

Envisat - Visible Passes

Search period start: 21 October 2019 00:00
Search period end: 30 October 2019 23:00
Orbit: 764 x 766 km, 98.1° (Epoch: 21 October)

Date Brightness Start Highest point End Pass type
(mag) Time Alt. Az. Time Alt. Az. Time Alt. Az.
21 Oct 3.1 18:54:45 10° SSE 18:59:50 84° WSW 19:04:58 10° NNW visible
21 Oct 6.2 20:37:42 10° WSW 20:39:40 12° W 20:41:37 10° WNW visible
22 Oct 3.2 18:18:17 10° SE 18:23:09 49° ENE 18:28:03 10° N visible
22 Oct 5.3 19:58:16 10° SSW 20:02:25 25° W 20:06:36 10° NW visible
23 Oct 6.4 06:25:17 10° ENE 06:27:28 13° E 06:29:39 10° ESE visible
23 Oct 3.9 19:20:28 10° S 19:25:24 51° W 19:30:22 10° NNW visible
24 Oct 2.9 18:43:30 10° SSE 18:48:35 80° ENE 18:53:41 10° NNW visible
24 Oct 6.0 20:25:19 10° WSW 20:28:14 15° W 20:31:09 10° NW visible
25 Oct 6.0 06:49:28 10° NE 06:53:19 21° E 06:57:08 10° SE visible
25 Oct 4.9 19:46:36 10° SSW 19:51:04 31° W 19:55:34 10° NNW visible
26 Oct 3.5 19:09:04 10° S 19:14:06 63° WSW 19:19:09 10° NNW visible
27 Oct 3.0 17:32:19 10° SSE 17:37:20 65° ENE 17:42:23 10° N visible
27 Oct 5.7 19:13:17 10° SW 19:16:50 19° W 19:20:23 10° NW visible
28 Oct 6.1 05:38:36 10° NE 05:41:55 17° E 05:45:13 10° SE visible
28 Oct 4.5 18:35:01 10° SSW 18:39:43 38° W 18:44:27 10° NNW visible
29 Oct 3.2 17:57:44 10° S 18:02:49 78° WSW 18:07:55 10° NNW visible
29 Oct 6.2 19:41:21 10° W 19:42:42 11° W 19:44:02 10° WNW visible
30 Oct 3.1 17:21:12 10° SE 17:26:06 53° ENE 17:31:03 10° N visible
30 Oct 5.4 19:01:26 10° SW 19:05:26 23° W 19:09:27 10° NW visible
